Gaosu Jiguang Zuanzhi 5

operational
NORAD ID: 62294 Int'l Des: 2024-238 Owner: CASC Country: CN
LEOCIRCULAR

Über Gaosu Jiguang Zuanzhi 5

Beschreibung wird geladen...

Live-Position

3D-Globus wird geladen...

Nächste Überflüge

Höhenverlauf

Altitude vs Time

uPlot chart will show altitude changes over time

Zweizeiliger Elementsatz

1 62294U 24238E 26062.19582706 -.00000105 00000-0 14243-4 0 9991
2 62294 59.9100 231.7969 0008410 256.4641 103.5430 13.75188390 61331
Epoch: 3. März 2026 • Age: 14 hours

Aktueller Status

Höhe 981.5 km
Geschwindigkeit 7.36 km/s
Subsatellitenpunkt 9.61°N, 29.97°E
Startdatum 12. Dez. 2024
Alter 1.2 years
Typ other

Technische Details

Klassifizierung Payload
Masse 150.00 kg
Trockenmasse 150.00 kg
Gesamtmasse 150.00 kg
Länge 0.30 m
Durchmesser 0.20 m
Spannweite 3.00 m
Form Box + 2 pan
Hersteller HITSAT
Bus-Typ HarbFlat
Phasenstatus In Orbit
Besitzer/Staat CASC/CN

Große Konstellationen

Loading constellations...